Вернуться в каталог

ARIANE 5 R/B

АктивенGTO
NORAD 41593·ROCKET BODY·🇫🇷 France

Запущен Jun 18, 2016 с Guiana Space Centre

Loading…

TLE

УстаревающийSource: Space-Track

Эпоха: Sep 14, 2026, 10:50 UTC

1 41593U 16039C   26257.45198864  .00002879  00000-0  11608-2 0  9992
2 41593   6.0213 255.4456 7133192 107.1563 336.5182  2.45785355 87867

Отслеживайте ARIANE 5 R/B в реальном времени с AllMySat

Download on the App Store